NNSS 20 (TRANSIT 20)

Last updated on Fri Jun 19 2026 20:04:44 GMT+0000 (Coordinated Universal Time)

1 06909U 73081A 26170.50224520 .00000187 00000+0 18174-3 0 9998 2 06909 89.8632 252.2252 0152870 231.5850 127.1506 13.71510246829482
UTC large
Height (km)
Speed (km/s)
/
Latitude / Longitude
Inclination (degrees)
Orbital Period (minutes)
Azimuth
Elevation
Range (km)
Doppler Factor

Next 0 passes for location: London (51.5072 / 0.1276)

Sorry there are no passes over London.
NNSS 20 (TRANSIT 20)